RYR28VA LPPR-LEVC

Flight info

Callsign RYR28VA
Flight time 1h 6m
Altitude 31000
Route PESUL DCT RIVRO DCT BARDI/N0416F320 M191 DIPOL M871 NVS/N0412F310 DCT NANDO M871 ABOSI
Aircraft B738/M-SDE2E3FGHIRWXY/LB1

Departure

Time 2026-05-08 20:19
Airport Francisco de Sá Carneiro Airport (LPPR)

Arrival

Time 2026-05-08 21:25
Airport Valencia Airport (LEVC)
Time Latitude Longitude Altitude Speed Heading
2026-05-08 19:48 41.23776 -8.67295 244 ft 0 kts 49°
2026-05-08 19:49 41.23773 -8.67300 244 ft 0 kts 49°
2026-05-08 20:10 41.23766 -8.67310 244 ft 4 kts 49°
2026-05-08 20:10 41.23748 -8.67337 242 ft 4 kts 49°
2026-05-08 20:10 41.23734 -8.67359 241 ft 4 kts 53°
2026-05-08 20:10 41.23724 -8.67389 240 ft 4 kts 100°
2026-05-08 20:11 41.23733 -8.67416 239 ft 1 kts 126°
2026-05-08 20:11 41.23734 -8.67417 239 ft 1 kts 126°
2026-05-08 20:13 41.23703 -8.67416 238 ft 10 kts 191°
2026-05-08 20:13 41.23595 -8.67416 237 ft 19 kts 168°
2026-05-08 20:14 41.23478 -8.67385 239 ft 12 kts 168°
2026-05-08 20:14 41.23395 -8.67364 238 ft 12 kts 174°
2026-05-08 20:14 41.23332 -8.67434 236 ft 12 kts 255°
2026-05-08 20:14 41.23317 -8.67540 234 ft 10 kts 259°
2026-05-08 20:15 41.23309 -8.67592 236 ft 0 kts 258°
2026-05-08 20:17 41.23303 -8.67631 235 ft 10 kts 258°
2026-05-08 20:17 41.23317 -8.67735 237 ft 8 kts 340°
2026-05-08 20:18 41.23376 -8.67750 237 ft 9 kts 349°
2026-05-08 20:18 41.23600 -8.67809 232 ft 67 kts 348°
2026-05-08 20:18 41.24287 -8.67990 216 ft 131 kts 349°
2026-05-08 20:18 41.25316 -8.68264 401 ft 162 kts 350°
2026-05-08 20:19 41.26434 -8.68576 1085 ft 165 kts 349°
2026-05-08 20:19 41.27566 -8.68884 1753 ft 172 kts 352°
2026-05-08 20:19 41.28835 -8.69204 2016 ft 199 kts 352°
2026-05-08 20:19 41.30268 -8.69577 2345 ft 217 kts 351°
2026-05-08 20:20 41.31788 -8.69989 2746 ft 228 kts 350°
2026-05-08 20:20 41.33360 -8.70427 3345 ft 233 kts 349°
2026-05-08 20:20 41.35004 -8.70889 3687 ft 254 kts 349°
2026-05-08 20:20 41.36813 -8.71400 4003 ft 274 kts 348°
2026-05-08 20:21 41.38738 -8.71771 4551 ft 285 kts
2026-05-08 20:21 41.40594 -8.71036 5244 ft 282 kts 34°
2026-05-08 20:21 41.42017 -8.69252 5967 ft 278 kts 62°
2026-05-08 20:21 41.42661 -8.66877 6673 ft 271 kts 89°
2026-05-08 20:22 41.42536 -8.64410 7405 ft 267 kts 110°
2026-05-08 20:22 41.41879 -8.62138 8137 ft 267 kts 117°
2026-05-08 20:22 41.41092 -8.59846 8886 ft 270 kts 119°
2026-05-08 20:22 41.40295 -8.57595 9650 ft 274 kts 119°
2026-05-08 20:23 41.39469 -8.55274 10208 ft 285 kts 119°
2026-05-08 20:23 41.38582 -8.52779 10387 ft 310 kts 118°
2026-05-08 20:23 41.37645 -8.50125 10873 ft 322 kts 118°
2026-05-08 20:23 41.36690 -8.47402 11581 ft 326 kts 118°
2026-05-08 20:24 41.35731 -8.44652 12356 ft 330 kts 118°
2026-05-08 20:24 41.34761 -8.41868 13140 ft 334 kts 118°
2026-05-08 20:24 41.33777 -8.39043 13879 ft 338 kts 118°
2026-05-08 20:24 41.32783 -8.36189 14577 ft 342 kts 118°
2026-05-08 20:25 41.31773 -8.33292 15252 ft 348 kts 117°
2026-05-08 20:25 41.30743 -8.30342 15919 ft 354 kts 117°
2026-05-08 20:25 41.29700 -8.27354 16684 ft 358 kts 117°
2026-05-08 20:25 41.28648 -8.24343 17418 ft 362 kts 117°
2026-05-08 20:26 41.27565 -8.21249 18132 ft 366 kts 117°
2026-05-08 20:26 41.26500 -8.18208 18753 ft 370 kts 117°
2026-05-08 20:26 41.25411 -8.15101 19418 ft 372 kts 118°
2026-05-08 20:26 41.24313 -8.11973 20043 ft 376 kts 118°
2026-05-08 20:27 41.23202 -8.08813 20638 ft 380 kts 118°
2026-05-08 20:27 41.22079 -8.05620 21233 ft 383 kts 118°
2026-05-08 20:27 41.20945 -8.02399 21814 ft 387 kts 118°
2026-05-08 20:27 41.19798 -7.99149 22389 ft 390 kts 118°
2026-05-08 20:28 41.18641 -7.95872 22980 ft 394 kts 118°
2026-05-08 20:28 41.17472 -7.92566 23537 ft 397 kts 118°
2026-05-08 20:28 41.16296 -7.89242 24040 ft 400 kts 118°
2026-05-08 20:28 41.15108 -7.85889 24467 ft 403 kts 118°
2026-05-08 20:29 41.13912 -7.82516 24910 ft 406 kts 119°
2026-05-08 20:29 41.12702 -7.79109 25330 ft 410 kts 119°
2026-05-08 20:29 41.11481 -7.75677 25762 ft 413 kts 119°
2026-05-08 20:29 41.10252 -7.72223 26213 ft 416 kts 119°
2026-05-08 20:30 41.09012 -7.68743 26646 ft 419 kts 120°
2026-05-08 20:30 41.07768 -7.65257 27201 ft 418 kts 120°
2026-05-08 20:30 41.06526 -7.61776 27812 ft 416 kts 120°
2026-05-08 20:30 41.05290 -7.58316 28369 ft 416 kts 120°
2026-05-08 20:31 41.04044 -7.54841 28795 ft 419 kts 120°
2026-05-08 20:31 41.02796 -7.51359 29342 ft 418 kts 120°
2026-05-08 20:31 41.01550 -7.47888 29960 ft 416 kts 121°
2026-05-08 20:31 41.00310 -7.44435 30431 ft 415 kts 121°
2026-05-08 20:32 40.99066 -7.40980 30804 ft 417 kts 121°
2026-05-08 20:32 40.97814 -7.37509 31190 ft 418 kts 121°
2026-05-08 20:32 40.96562 -7.34038 31612 ft 418 kts 122°
2026-05-08 20:32 40.95305 -7.30561 31848 ft 421 kts 122°
2026-05-08 20:33 40.92769 -7.23556 31836 ft 420 kts 122°
2026-05-08 20:33 40.90261 -7.16629 31844 ft 418 kts 123°
2026-05-08 20:34 40.87729 -7.09674 31857 ft 421 kts 123°
2026-05-08 20:35 40.83900 -6.99178 31855 ft 423 kts 123°
2026-05-08 20:35 40.81364 -6.92241 31842 ft 421 kts 123°
2026-05-08 20:36 40.78822 -6.85304 31848 ft 418 kts 123°
2026-05-08 20:36 40.76291 -6.78416 31849 ft 416 kts 124°
2026-05-08 20:37 40.73758 -6.71549 31860 ft 416 kts 124°
2026-05-08 20:37 40.71220 -6.64681 31866 ft 418 kts 124°
2026-05-08 20:38 40.68670 -6.57792 31865 ft 419 kts 124°
2026-05-08 20:38 40.66108 -6.50888 31865 ft 420 kts 124°
2026-05-08 20:39 40.63541 -6.43982 31833 ft 420 kts 125°
2026-05-08 20:39 40.60970 -6.37080 31864 ft 420 kts 125°
2026-05-08 20:40 40.58551 -6.30033 31868 ft 431 kts 116°
2026-05-08 20:40 40.57476 -6.22138 31890 ft 443 kts 104°
2026-05-08 20:41 40.56773 -6.14080 31873 ft 443 kts 104°
2026-05-08 20:41 40.56027 -6.06048 31851 ft 442 kts 105°
2026-05-08 20:42 40.55237 -5.98041 31859 ft 441 kts 106°
2026-05-08 20:42 40.54435 -5.90068 31885 ft 441 kts 106°
2026-05-08 20:43 40.53625 -5.82051 31893 ft 443 kts 106°
2026-05-08 20:43 40.52811 -5.73999 31905 ft 445 kts 106°
2026-05-08 20:44 40.51993 -5.65908 31891 ft 447 kts 107°
2026-05-08 20:44 40.51174 -5.57852 31898 ft 448 kts 107°
2026-05-08 20:45 40.50343 -5.49729 31914 ft 449 kts 107°
2026-05-08 20:45 40.49503 -5.41589 31908 ft 450 kts 107°
2026-05-08 20:46 40.48658 -5.33448 31903 ft 450 kts 107°
2026-05-08 20:46 40.47807 -5.25308 31907 ft 450 kts 108°
2026-05-08 20:47 40.46949 -5.17171 31916 ft 449 kts 107°
2026-05-08 20:47 40.46084 -5.09026 31933 ft 452 kts 108°
2026-05-08 20:48 40.45355 -5.02215 31903 ft 454 kts 108°
2026-05-08 20:48 40.44473 -4.93996 31857 ft 454 kts 108°
2026-05-08 20:49 40.43581 -4.85766 31910 ft 457 kts 108°
2026-05-08 20:49 40.42682 -4.77490 31905 ft 459 kts 108°
2026-05-08 20:50 40.41776 -4.69199 31913 ft 458 kts 108°
2026-05-08 20:50 40.40872 -4.60931 31911 ft 457 kts 108°
2026-05-08 20:51 40.39977 -4.52697 31896 ft 455 kts 109°
2026-05-08 20:51 40.39074 -4.44483 31912 ft 456 kts 109°
2026-05-08 20:52 40.38160 -4.36235 31906 ft 458 kts 109°
2026-05-08 20:52 40.37239 -4.27946 31918 ft 461 kts 109°
2026-05-08 20:53 40.36114 -4.19688 31917 ft 458 kts 113°
2026-05-08 20:53 40.34663 -4.11562 31910 ft 458 kts 114°
2026-05-08 20:54 40.33180 -4.03446 31910 ft 458 kts 114°
2026-05-08 20:54 40.31729 -3.95328 31902 ft 457 kts 114°
2026-05-08 20:55 40.30299 -3.87239 31904 ft 454 kts 114°
2026-05-08 20:55 40.28875 -3.79194 31884 ft 453 kts 114°
2026-05-08 20:56 40.27446 -3.71163 31935 ft 453 kts 114°
2026-05-08 20:56 40.26007 -3.63124 31950 ft 454 kts 114°
2026-05-08 20:57 40.24558 -3.55064 31932 ft 456 kts 114°
2026-05-08 20:57 40.23098 -3.46974 31934 ft 457 kts 114°
2026-05-08 20:57 40.22373 -3.42952 31724 ft 452 kts 114°
2026-05-08 20:58 40.21657 -3.38973 31472 ft 445 kts 113°
2026-05-08 20:58 40.20948 -3.35047 31116 ft 442 kts 113°
2026-05-08 20:58 40.20238 -3.31145 30781 ft 439 kts 113°
2026-05-08 20:58 40.19532 -3.27277 30427 ft 436 kts 112°
2026-05-08 20:59 40.18828 -3.23433 30110 ft 433 kts 112°
2026-05-08 20:59 40.18127 -3.19613 29725 ft 431 kts 112°
2026-05-08 20:59 40.17430 -3.15815 29332 ft 428 kts 112°
2026-05-08 20:59 40.16736 -3.12040 28966 ft 425 kts 112°
2026-05-08 21:00 40.16049 -3.08306 28598 ft 421 kts 112°
2026-05-08 21:00 40.15366 -3.04599 28197 ft 418 kts 112°
2026-05-08 21:00 40.14696 -3.00977 27894 ft 413 kts 112°
2026-05-08 21:00 40.14022 -2.97342 27539 ft 410 kts 112°
2026-05-08 21:01 40.13351 -2.93730 27199 ft 408 kts 112°
2026-05-08 21:01 40.12682 -2.90143 26848 ft 405 kts 112°
2026-05-08 21:01 40.12016 -2.86574 26505 ft 403 kts 112°
2026-05-08 21:01 40.11354 -2.83030 26164 ft 401 kts 112°
2026-05-08 21:02 40.10694 -2.79503 25820 ft 398 kts 112°
2026-05-08 21:02 40.10038 -2.76002 25487 ft 395 kts 112°
2026-05-08 21:02 40.09385 -2.72525 25155 ft 393 kts 112°
2026-05-08 21:02 40.08736 -2.69071 24822 ft 391 kts 112°
2026-05-08 21:03 40.08087 -2.65630 24462 ft 389 kts 112°
2026-05-08 21:03 40.07443 -2.62217 24143 ft 386 kts 111°
2026-05-08 21:03 40.06801 -2.58822 23822 ft 384 kts 111°
2026-05-08 21:03 40.06160 -2.55440 23487 ft 383 kts 111°
2026-05-08 21:04 40.05522 -2.52079 23079 ft 381 kts 111°
2026-05-08 21:04 40.04889 -2.48743 22738 ft 377 kts 111°
2026-05-08 21:04 40.04261 -2.45437 22395 ft 374 kts 111°
2026-05-08 21:04 40.03635 -2.42156 22075 ft 371 kts 111°
2026-05-08 21:05 40.03013 -2.38899 21738 ft 369 kts 111°
2026-05-08 21:05 40.02394 -2.35663 21397 ft 366 kts 111°
2026-05-08 21:05 40.01778 -2.32450 21083 ft 364 kts 111°
2026-05-08 21:05 40.01165 -2.29258 20751 ft 362 kts 111°
2026-05-08 21:06 40.00555 -2.26083 20428 ft 360 kts 111°
2026-05-08 21:06 39.99947 -2.22924 20116 ft 358 kts 111°
2026-05-08 21:06 39.99341 -2.19784 19803 ft 356 kts 111°
2026-05-08 21:06 39.98734 -2.16661 19500 ft 354 kts 112°
2026-05-08 21:07 39.98060 -2.13593 19276 ft 350 kts 114°
2026-05-08 21:07 39.97349 -2.10561 19038 ft 350 kts 114°
2026-05-08 21:07 39.96628 -2.07534 18801 ft 349 kts 114°
2026-05-08 21:07 39.95913 -2.04527 18593 ft 345 kts 114°
2026-05-08 21:08 39.95210 -2.01547 18308 ft 344 kts 114°
2026-05-08 21:08 39.94509 -1.98573 17968 ft 343 kts 114°
2026-05-08 21:08 39.93813 -1.95607 17645 ft 341 kts 114°
2026-05-08 21:08 39.93121 -1.92655 17314 ft 340 kts 114°
2026-05-08 21:09 39.92431 -1.89713 16957 ft 339 kts 113°
2026-05-08 21:09 39.91744 -1.86785 16643 ft 337 kts 113°
2026-05-08 21:09 39.91061 -1.83873 16344 ft 335 kts 113°
2026-05-08 21:09 39.90382 -1.80980 16042 ft 334 kts 113°
2026-05-08 21:10 39.89702 -1.78092 15728 ft 333 kts 113°
2026-05-08 21:10 39.89034 -1.75254 15415 ft 332 kts 113°
2026-05-08 21:10 39.88356 -1.72382 15104 ft 331 kts 113°
2026-05-08 21:10 39.87680 -1.69524 14777 ft 330 kts 112°
2026-05-08 21:11 39.87007 -1.66671 14481 ft 329 kts 112°
2026-05-08 21:11 39.86334 -1.63829 14161 ft 329 kts 112°
2026-05-08 21:11 39.85660 -1.60982 13838 ft 329 kts 112°
2026-05-08 21:11 39.84987 -1.58143 13499 ft 328 kts 112°
2026-05-08 21:12 39.84315 -1.55313 13148 ft 327 kts 112°
2026-05-08 21:12 39.83647 -1.52501 12823 ft 324 kts 111°
2026-05-08 21:12 39.82982 -1.49706 12507 ft 322 kts 111°
2026-05-08 21:12 39.82321 -1.46932 12277 ft 319 kts 111°
2026-05-08 21:13 39.81670 -1.44206 12052 ft 314 kts 111°
2026-05-08 21:13 39.81023 -1.41507 11763 ft 311 kts 111°
2026-05-08 21:13 39.80381 -1.38830 11464 ft 310 kts 111°
2026-05-08 21:13 39.79741 -1.36162 11165 ft 308 kts 110°
2026-05-08 21:14 39.79105 -1.33512 10857 ft 307 kts 110°
2026-05-08 21:14 39.78470 -1.30874 10560 ft 305 kts 110°
2026-05-08 21:14 39.77837 -1.28245 10260 ft 304 kts 110°
2026-05-08 21:14 39.77214 -1.25639 10072 ft 299 kts 110°
2026-05-08 21:15 39.76606 -1.23090 9870 ft 294 kts 110°
2026-05-08 21:15 39.76009 -1.20594 9591 ft 292 kts 109°
2026-05-08 21:15 39.75408 -1.18079 9265 ft 290 kts 109°
2026-05-08 21:15 39.74814 -1.15595 9029 ft 287 kts 110°
2026-05-08 21:16 39.74221 -1.13120 8672 ft 286 kts 109°
2026-05-08 21:16 39.73633 -1.10681 8442 ft 282 kts 109°
2026-05-08 21:16 39.73050 -1.08260 8157 ft 280 kts 109°
2026-05-08 21:16 39.72472 -1.05853 7935 ft 278 kts 110°
2026-05-08 21:17 39.71901 -1.03500 7867 ft 269 kts 110°
2026-05-08 21:17 39.71343 -1.01211 7741 ft 261 kts 109°
2026-05-08 21:17 39.70803 -0.98990 7634 ft 255 kts 110°
2026-05-08 21:17 39.70114 -0.96871 7373 ft 255 kts 120°
2026-05-08 21:18 39.69274 -0.94844 7103 ft 254 kts 121°
2026-05-08 21:18 39.68427 -0.92845 6902 ft 253 kts 120°
2026-05-08 21:18 39.67586 -0.90842 6652 ft 253 kts 121°
2026-05-08 21:18 39.66749 -0.88832 6387 ft 253 kts 119°
2026-05-08 21:19 39.65922 -0.86821 6126 ft 252 kts 119°
2026-05-08 21:19 39.65100 -0.84812 5858 ft 252 kts 118°
2026-05-08 21:19 39.64283 -0.82810 5598 ft 251 kts 118°
2026-05-08 21:19 39.63468 -0.80813 5337 ft 251 kts 118°
2026-05-08 21:20 39.62653 -0.78815 5063 ft 251 kts 117°
2026-05-08 21:20 39.61640 -0.76980 4768 ft 253 kts 136°
2026-05-08 21:20 39.60304 -0.75483 4451 ft 255 kts 139°
2026-05-08 21:20 39.58983 -0.73990 4156 ft 256 kts 137°
2026-05-08 21:21 39.57959 -0.72185 3955 ft 245 kts 112°
2026-05-08 21:21 39.57324 -0.70179 3635 ft 236 kts 114°
2026-05-08 21:21 39.56615 -0.68317 3329 ft 226 kts 116°
2026-05-08 21:21 39.55923 -0.66537 3029 ft 216 kts 116°
2026-05-08 21:22 39.55271 -0.64834 2762 ft 205 kts 115°
2026-05-08 21:22 39.54659 -0.63228 2496 ft 193 kts 115°
2026-05-08 21:22 39.54085 -0.61720 2253 ft 180 kts 115°
2026-05-08 21:22 39.53560 -0.60336 2032 ft 162 kts 115°
2026-05-08 21:23 39.53077 -0.59071 1803 ft 149 kts 114°
2026-05-08 21:23 39.52619 -0.57888 1630 ft 144 kts 117°
2026-05-08 21:23 39.52164 -0.56715 1404 ft 146 kts 114°
2026-05-08 21:23 39.51736 -0.55538 1201 ft 146 kts 114°
2026-05-08 21:24 39.51292 -0.54345 1006 ft 147 kts 116°
2026-05-08 21:24 39.50833 -0.53162 808 ft 148 kts 115°
2026-05-08 21:24 39.50378 -0.51956 622 ft 150 kts 115°
2026-05-08 21:24 39.49919 -0.50744 406 ft 149 kts 114°
2026-05-08 21:25 39.49460 -0.49544 237 ft 146 kts 114°
2026-05-08 21:25 39.49062 -0.48497 211 ft 104 kts 115°
2026-05-08 21:25 39.48838 -0.47911 204 ft 41 kts 116°
2026-05-08 21:25 39.48724 -0.47612 200 ft 37 kts 116°
2026-05-08 21:26 39.48652 -0.47381 191 ft 23 kts 97°
2026-05-08 21:26 39.48680 -0.47226 192 ft 13 kts 53°
2026-05-08 21:26 39.48761 -0.47176 186 ft 13 kts
2026-05-08 21:26 39.48806 -0.47195 186 ft 5 kts 336°
2026-05-08 21:27 39.48836 -0.47213 193 ft 5 kts 336°
2026-05-08 21:27 39.48871 -0.47230 190 ft 6 kts 341°
2026-05-08 21:27 39.48910 -0.47252 193 ft 6 kts 318°
2026-05-08 21:27 39.48930 -0.47298 194 ft 6 kts 296°
2026-05-08 21:28 39.48927 -0.47343 191 ft 5 kts 220°
2026-05-08 21:28 39.48915 -0.47350 197 ft 1 kts 202°
2026-05-08 21:28 39.48911 -0.47353 197 ft 1 kts 214°
2026-05-08 21:28 39.48890 -0.47371 195 ft 5 kts 214°
2026-05-08 21:29 39.48894 -0.47403 201 ft 1 kts 357°
2026-05-08 21:29 39.48895 -0.47403 201 ft 0 kts 357°